Date String (YYYY-MM-DD hh:mm:ss) UTC,Instrument flags,Ambient pressure (hPa),Sample flow (lpm),Bypass flow (lpm),Sample temperature (°C),Ambient temperature (°C),ASC tube jacket temperature (°C),LED temperature (°C),Box temperature (°C),Sample RH (%),Span deviation,Mass concentration (μg/m³),Mass concentration (μg/m³),Mass concentration (μg/m³)
DateTimeUTC,F1_M11,P_M11,Q1_M11,Q2_M11,T1_M11,T2_M11,T3_M11,T4_M11,T5_M11,U1_M11,ZSPAN_M11,X0_M11,X2_M11,X1_M11
2022-04-01 05:00:00,,0816.2,5.02,0.00,28.4,27.3,00.0,37.4,30.0,09.2,0000.0,0008.97,0003.36,0001.58
2022-04-01 05:01:00,,0816.1,4.99,0.00,28.3,27.3,00.0,37.4,29.9,09.2,0000.0,0008.73,0003.34,0001.59
2022-04-01 05:02:00,,0816.1,5.02,0.00,28.3,27.3,00.0,37.4,29.9,09.1,0000.0,0008.78,0003.33,0001.58
2022-04-01 05:03:00,,0816.3,4.98,0.00,28.3,27.3,00.0,37.4,29.9,09.1,0000.0,0008.79,0003.33,0001.57
2022-04-01 05:04:00,,0816.1,5.01,0.00,28.3,27.3,00.0,37.4,29.9,09.2,0000.0,0008.40,0003.35,0001.56
2022-04-01 05:05:00,,0816.1,5.00,0.00,28.3,27.2,00.0,37.4,29.9,09.2,0000.0,0008.02,0003.37,0001.56
2022-04-01 05:06:00,,0816.2,5.00,0.00,28.3,27.2,00.0,37.3,29.9,09.2,0000.0,0007.96,0003.33,0001.55
2022-04-01 05:07:00,,0816.1,4.98,0.00,28.2,27.2,00.0,37.3,29.8,09.2,0000.0,0007.92,0003.27,0001.54
2022-04-01 05:08:00,,0816.2,5.00,0.00,28.2,27.2,00.0,37.3,29.8,09.2,0000.0,0007.99,0003.28,0001.54
2022-04-01 05:09:00,,0816.3,4.99,0.00,28.2,27.1,00.0,37.3,29.8,09.3,0000.0,0007.65,0003.26,0001.55
2022-04-01 05:10:00,,0816.6,5.01,0.00,28.2,27.1,00.0,37.3,29.8,09.3,0000.0,0007.73,0003.29,0001.56
2022-04-01 05:11:00,,0816.2,4.98,0.00,28.2,27.1,00.0,37.3,29.8,09.3,0000.0,0007.89,0003.30,0001.56
2022-04-01 05:12:00,,0816.3,5.01,0.00,28.2,27.1,00.0,37.3,29.8,09.2,0000.0,0008.06,0003.30,0001.55
2022-04-01 05:13:00,,0816.3,5.00,0.00,28.2,27.1,00.0,37.3,29.8,09.3,0000.0,0008.10,0003.30,0001.55
2022-04-01 05:14:00,,0816.1,4.98,0.00,28.2,27.0,00.0,37.3,29.8,09.3,0000.0,0007.98,0003.27,0001.56
2022-04-01 05:15:00,,0816.3,5.00,0.00,28.2,27.0,00.0,37.3,29.8,09.3,0000.0,0008.06,0003.26,0001.56
2022-04-01 05:16:00,,0816.4,5.01,0.00,28.2,27.1,00.0,37.3,29.8,09.3,0000.0,0007.82,0003.24,0001.55
2022-04-01 05:17:00,,0816.1,4.99,0.00,28.2,27.0,00.0,37.2,29.8,09.4,0000.0,0007.62,0003.20,0001.53
2022-04-01 05:18:00,,0816.3,5.00,0.00,28.2,27.0,00.0,37.2,29.8,09.3,0000.0,0007.63,0003.20,0001.53
2022-04-01 05:19:00,,0816.1,5.01,0.00,28.2,27.0,00.0,37.2,29.8,09.4,0000.0,0007.51,0003.19,0001.53
2022-04-01 05:20:00,,0816.1,4.99,0.00,28.2,27.0,00.0,37.2,29.8,09.4,0000.0,0007.63,0003.22,0001.54
2022-04-01 05:21:00,,0816.1,5.01,0.00,28.2,27.0,00.0,37.2,29.8,09.4,0000.0,0007.87,0003.23,0001.53
2022-04-01 05:22:00,,0816.2,4.98,0.00,28.2,27.0,00.0,37.2,29.8,09.4,0000.0,0007.74,0003.21,0001.53
2022-04-01 05:23:00,,0816.2,5.01,0.00,28.1,27.0,00.0,37.2,29.8,09.5,0000.0,0007.60,0003.23,0001.53
2022-04-01 05:24:00,,0816.2,4.99,0.00,28.1,27.0,00.0,37.2,29.9,09.4,0000.0,0007.94,0003.23,0001.53
2022-04-01 05:25:00,,0816.3,5.00,0.00,28.1,27.0,00.0,37.2,29.8,09.4,0000.0,0008.45,0003.27,0001.54
2022-04-01 05:26:00,,0816.3,4.98,0.00,28.1,27.0,00.0,37.2,29.9,09.5,0000.0,0008.34,0003.30,0001.55
2022-04-01 05:27:00,,0816.4,5.00,0.00,28.1,27.0,00.0,37.2,29.9,09.5,0000.0,0008.42,0003.35,0001.59
2022-04-01 05:28:00,,0816.4,5.00,0.00,28.2,27.1,00.0,37.2,29.9,09.5,0000.0,0008.45,0003.35,0001.60
2022-04-01 05:29:00,,0816.5,4.99,0.00,28.2,27.1,00.0,37.2,29.9,09.6,0000.0,0008.28,0003.32,0001.59
2022-04-01 05:30:00,,0816.5,5.01,0.00,28.2,27.2,00.0,37.2,29.9,09.6,0000.0,0008.35,0003.35,0001.59
2022-04-01 05:31:00,,0816.4,4.99,0.00,28.2,27.2,00.0,37.2,30.0,09.5,0000.0,0008.63,0003.33,0001.57
2022-04-01 05:32:00,,0816.5,5.02,0.00,28.2,27.2,00.0,37.2,29.9,09.2,0000.0,0008.47,0003.32,0001.57
2022-04-01 05:33:00,,0816.4,4.99,0.00,28.2,27.3,00.0,37.2,30.0,09.1,0000.0,0008.76,0003.39,0001.58
2022-04-01 05:34:00,,0816.8,5.00,0.00,28.2,27.3,00.0,37.2,30.0,09.0,0000.0,0008.87,0003.38,0001.58
2022-04-01 05:35:00,,0816.4,4.99,0.00,28.2,27.3,00.0,37.2,30.0,08.9,0000.0,0008.51,0003.39,0001.59
2022-04-01 05:36:00,,0816.6,5.01,0.00,28.2,27.3,00.0,37.2,30.0,08.8,0000.0,0008.05,0003.37,0001.57
2022-04-01 05:37:00,,0816.4,5.02,0.00,28.2,27.3,00.0,37.2,30.0,08.7,0000.0,0008.46,0003.36,0001.56
2022-04-01 05:38:00,,0816.5,4.99,0.00,28.2,27.3,00.0,37.2,30.0,08.7,0000.0,0008.87,0003.32,0001.53
2022-04-01 05:39:00,,0816.5,5.00,0.00,28.2,27.3,00.0,37.2,30.0,08.7,0000.0,0008.95,0003.35,0001.52
2022-04-01 05:40:00,,0816.5,5.00,0.00,28.2,27.3,00.0,37.2,30.0,08.8,0000.0,0008.99,0003.34,0001.52
2022-04-01 05:41:00,,0816.5,5.00,0.00,28.2,27.3,00.0,37.2,30.0,08.8,0000.0,0009.16,0003.30,0001.53
2022-04-01 05:42:00,,0816.4,5.00,0.00,28.2,27.3,00.0,37.2,30.0,08.8,0000.0,0009.27,0003.32,0001.53
2022-04-01 05:43:00,,0816.5,5.00,0.00,28.2,27.3,00.0,37.2,30.0,08.8,0000.0,0009.18,0003.28,0001.52
2022-04-01 05:44:00,,0816.5,4.99,0.00,28.2,27.3,00.0,37.2,30.0,08.9,0000.0,0009.13,0003.20,0001.50
2022-04-01 05:45:00,,0816.5,5.00,0.00,28.2,27.3,00.0,37.2,30.0,08.8,0000.0,0008.97,0003.15,0001.50
2022-04-01 05:46:00,,0816.5,5.01,0.00,28.2,27.3,00.0,37.2,30.0,08.8,0000.0,0008.88,0003.11,0001.49
2022-04-01 05:47:00,,0816.5,4.99,0.00,28.2,27.3,00.0,37.2,29.9,08.8,0000.0,0009.00,0003.11,0001.49
2022-04-01 05:48:00,,0816.6,5.02,0.00,28.2,27.3,00.0,37.2,29.9,08.7,0000.0,0008.73,0003.09,0001.48
2022-04-01 05:49:00,,0816.6,4.99,0.00,28.2,27.3,00.0,37.2,29.9,08.7,0000.0,0008.35,0003.14,0001.48
2022-04-01 05:50:00,,0816.4,4.99,0.00,28.2,27.3,00.0,37.2,29.9,08.8,0000.0,0008.34,0003.12,0001.48
2022-04-01 05:51:00,,0816.5,5.02,0.00,28.2,27.3,00.0,37.2,29.9,08.7,0000.0,0008.42,0003.15,0001.48
2022-04-01 05:52:00,,0816.5,4.99,0.00,28.2,27.3,00.0,37.2,29.9,08.6,0000.0,0008.26,0003.14,0001.47
2022-04-01 05:53:00,,0816.5,4.99,0.00,28.2,27.3,00.0,37.2,30.0,08.5,0000.0,0008.37,0003.11,0001.49
2022-04-01 05:54:00,,0816.4,5.02,0.00,28.2,27.3,00.0,37.2,30.0,08.5,0000.0,0008.32,0003.12,0001.50
2022-04-01 05:55:00,,0816.4,4.99,0.00,28.2,27.3,00.0,37.2,29.9,08.6,0000.0,0008.29,0003.18,0001.50
2022-04-01 05:56:00,,0816.5,5.01,0.00,28.2,27.3,00.0,37.2,30.0,08.6,0000.0,0008.34,0003.21,0001.50
2022-04-01 05:57:00,,0816.4,5.01,0.00,28.2,27.3,00.0,37.2,30.0,08.5,0000.0,0008.38,0003.23,0001.49
2022-04-01 05:58:00,,0816.5,4.99,0.00,28.2,27.3,00.0,37.2,30.0,08.7,0000.0,0008.36,0003.24,0001.49
2022-04-01 05:59:00,,0816.4,4.99,0.00,28.2,27.3,00.0,37.2,29.9,08.7,0000.0,0008.36,0003.24,0001.49
